Regional Weather Roundup
Issued by NWS Sterling, VA

Home | Current Version | Previous Version | Text Only | Print | Product List | Glossary On
Versions: 1 2 3 4 5 6 7 8 9 10 11 12 13 14 15 16 17 18 19 20 21 22 23 24 25 26 27
000
ASUS41 KLWX 231610
RWRLWX

REGIONAL WEATHER ROUNDUP
NATIONAL WEATHER SERVICE BALTIMORE MD/WASHINGTON DC
1200 PM EDT THU MAR 23 2017

Note: "FAIR" indicates few or no clouds below 12,000 feet
with no significant weather and/or obstructions to visibility.
 TC=TEMPERATURE CELSIUS

 * =Non NWS site. Station does not report precipitation (e.g. rain,
    snow, etc.), thunder, or fog.

DCZ001-MDZ009-015-VAZ040>042-051-053>054-231700-
WASHINGTON METRO

CITY           SKY/WX    TMP DP  RH WIND       PRES   REMARKS
WASHINGTON NAT SUNNY     39   5  24 VRB3      30.67F
DULLES         SUNNY     38   5  25 N5        30.65F
ANDREWS AFB    SUNNY     37   4  25 VRB5      30.64F
FT BELVOIR     SUNNY     40   6  23 W5        30.66F
QUANTICO       SUNNY     39   8  27 CALM      30.68F
COLLEGE PARK*  SUNNY     36   7  30 CALM      30.66F
LEESBURG*      SUNNY     37  12  35 CALM      30.65F
MANASSAS*      SUNNY     38   6  26 VRB3      30.66S
GAITHERSBURG*  SUNNY     36   5  27 W3        30.68S

$$

MDZ006>007-011-014-231700-
BALTIMORE METRO

CITY           SKY/WX    TMP DP  RH WIND       PRES   REMARKS
BWI AIRPORT    MOSUNNY   37   5  26 NE6       30.65F
MD SCIENCE CTR   N/A     40   7  25 MISG      30.69F
MARTIN STATE   SUNNY     37  12  35 E5        30.67F
ANNAPOLIS      SUNNY     36  14  40 SE9       30.67F WCI  29
FORT MEADE*    SUNNY     36   5  27 E3        30.68F

$$

MDZ012-015-019>023-231700-
MARYLAND EASTERN SHORE

CITY           SKY/WX    TMP DP  RH WIND       PRES   REMARKS
OCEAN CITY     SUNNY     35  12  38 E7        30.66F
SALISBURY      SUNNY     38  11  32 VRB5      30.65F
BAY BRIDGE AP* SUNNY     34  10  37 NW7       30.67F
CAMBRIDGE*     SUNNY     36   7  30 N7        30.66F
EASTON*        SUNNY     37   1  22 NE5       30.70F

$$

MDZ017>025-231700-
SOUTHERN MARYLAND

CITY           SKY/WX    TMP DP  RH WIND       PRES   REMARKS
PATUXENT RIVER MOSUNNY   36  13  38 NE9       30.67F WCI  29
ST INIGOES     SUNNY     37  10  32 NE8       30.66F
LEONARDTOWN*   SUNNY     36   9  32 E7        30.67F

$$

MDZ003>005-231700-
NORTH CENTRAL MARYLAND

CITY           SKY/WX    TMP DP  RH WIND       PRES   REMARKS
FREDERICK*     SUNNY     37  10  32 VRB3      30.68F
HAGERSTOWN APT SUNNY     35   4  27 VRB3      30.61F
WESTMINSTER*   SUNNY     34   9  35 S5        30.60F

$$

MDZ501>502-231700-
WESTERN MARYLAND

CITY           SKY/WX    TMP DP  RH WIND       PRES   REMARKS
OAKLAND*       SUNNY     32   5  32 SE8       30.45S WCI  25
CUMBERLAND*    SUNNY     37   5  25 SW3       30.64F

$$

VAZ025>031-231700-
SHENANDOAH VALLEY

CITY           SKY/WX    TMP DP  RH WIND       PRES   REMARKS
WINCHESTER*    SUNNY     34   7  32 CALM      30.61F
FRONT ROYAL*   SUNNY     36   7  30 CALM      30.60F
LURAY*         SUNNY     37  14  38 CALM      30.59F
NEW MARKET*    SUNNY     38  10  31 CALM      30.58F
STAUNTON*      SUNNY     38  12  34 SE6       30.59F
WAYNESBORO*    SUNNY     38  11  32 E5        30.56F

$$

WVZ021-048>050-054>055-231700-
EASTERN WEST VIRGINIA PANHANDLE

CITY           SKY/WX    TMP DP  RH WIND       PRES   REMARKS
MARTINSBURG    SUNNY     36   4  26 VRB5      30.62F
PETERSBURG*    SUNNY     39  15  37 CALM      30.58F

$$

VAZ036>039-050-231700-
CENTRAL FOOTHILLS

CITY           SKY/WX    TMP DP  RH WIND       PRES   REMARKS
CHARLOTTESVILL SUNNY     41   9  26 S7        30.61F
CULPEPER*      SUNNY     39   8  28 CALM      30.65F
ORANGE*        SUNNY     37  10  32 N5        30.64F
GORDONSVILLE*  SUNNY     40  10  28 NE5       30.62F
WARRENTON*     SUNNY     40  -2  17 N3        30.63F

$$

VAZ055>057-231700-
NORTH AND CENTRAL PIEDMONT

CITY           SKY/WX    TMP DP  RH WIND       PRES   REMARKS
FREDERICKSBRG* SUNNY     40  12  32 NE3       30.66S
STAFFORD*      SUNNY     38   8  29 CALM      30.69F

$$

NCZ024-NYZ072-PAZ021-071-VAZ022-071-231700-
OTHER REGIONAL OBSERVATIONS

CITY           SKY/WX    TMP DP  RH WIND       PRES   REMARKS
NEW YORK CITY  SUNNY     32   0  25 VRB3      30.61F
PHILADELPHIA   SUNNY     36   7  29 VRB3      30.64F
PITTSBURGH     PTSUNNY   35  11  36 VRB3      30.54F
ROANOKE        MOSUNNY   42   9  25 SE8       30.59F
RICHMOND       MOSUNNY   41  11  29 VRB3      30.65F
RALEIGH        MOSUNNY   47  17  30 E8        30.61S

$$

ANZ530>537-231700-
MARINE OBSERVATIONS

STATION/POSITION TIME  TEMP    WIND        PRES
                       AIR SEA DIR/SP/G
                 (UTC) (F)     (DEG/KT/KT) (MB)
THOMAS PT LIGHT  1600   32 43   80/  5/  5   N/A
BALT KEY BRIDGE  1542   33      CALM  /  1 1038.6F
COVE POINT       1542   31      30/  8/ 10 1039.3F
LEWISETTA        1542   33 46   90/  6/  7 1038.5F
SOLOMONS ISLAND  1542   33 45   60/  6/ 10   N/A
PINEY POINT      1548          360/  3/  4   N/A

$$





USA.gov is the U.S. government's official web portal to all federal, state and local government web resources and services.